Theta_e
349 347 347 346 346 346 345 344 343 343 344 344 343 342 341 340 340 342 341 339 336 334 334 338 340 340 338 337 336 336 336 337 338 339 341 343 344 343 343 344 345 345 345 344 344 344 344 344 343 341 341 342 343 343 340 341 343 342 342 343 342 342 343 344 345 345 345 344 344 344 344 340 328 320 316 317 330 341 344 345 346 342 333 334 341
348 347 347 344 344 344 342 343 343 343 343 343 342 341 341 342 343 342 339 336 334 332 332 333 334 335 336 337 338 339 339 339 339 339 341 343 343 344 344 345 346 346 346 345 345 345 343 343 343 341 341 343 344 342 339 341 343 342 342 342 342 343 344 344 345 345 345 344 344 344 342 333 321 318 318 317 328 340 343 344 343 336 333 339 343
347 346 346 344 343 342 342 343 343 343 343 343 343 343 344 343 342 339 335 333 331 331 331 333 334 337 339 340 341 341 342 342 342 341 342 343 343 344 345 345 345 345 346 345 346 345 343 343 343 342 342 343 344 342 339 341 342 342 341 341 342 343 344 344 344 345 345 344 344 344 342 330 318 319 321 321 328 337 340 340 337 335 339 343 343
347 347 347 346 344 344 343 342 342 342 343 344 344 344 344 341 337 334 333 333 333 335 337 338 339 340 341 342 342 342 343 343 343 343 342 342 342 343 344 344 344 345 345 346 346 346 344 344 344 343 343 343 345 343 340 340 341 341 340 340 342 343 344 344 343 344 344 345 345 344 343 332 323 326 329 331 333 335 336 337 338 341 344 343 342
347 347 347 346 345 344 344 343 342 343 343 344 343 342 340 336 332 333 335 337 337 339 339 340 341 341 343 344 343 342 342 343 343 343 343 342 342 342 343 344 344 344 344 345 346 346 345 344 344 343 342 343 344 343 340 340 341 341 340 340 342 342 343 344 343 343 343 345 345 345 343 334 328 334 340 340 340 339 340 341 343 344 343 343 343
347 347 346 345 345 342 342 344 343 343 342 341 339 338 335 332 333 337 339 341 342 342 343 343 343 343 344 344 343 343 342 343 344 343 343 343 342 342 342 343 344 344 344 344 344 345 344 345 344 343 343 342 343 343 341 339 340 341 340 339 340 341 342 343 342 343 343 343 344 344 342 334 328 336 343 343 343 343 343 343 343 343 343 343 343
348 348 347 346 345 341 340 341 341 340 338 338 336 334 332 333 338 341 342 343 344 344 344 344 344 344 345 344 343 344 344 344 345 344 344 343 343 342 342 343 344 344 344 344 344 344 344 345 344 343 343 342 342 343 341 338 339 339 339 339 339 341 342 343 343 342 342 344 347 345 344 338 329 336 342 342 342 342 343 343 343 343 343 343 343
348 348 347 346 344 340 340 339 339 338 337 336 334 332 332 337 341 343 344 344 344 344 344 344 344 345 345 344 343 344 344 344 344 345 345 344 343 343 343 343 343 344 344 343 344 343 344 345 344 343 343 342 342 342 341 338 337 337 339 339 339 341 343 345 344 343 342 345 348 346 345 338 329 336 341 340 341 342 342 342 342 342 342 342 342
347 346 346 346 343 340 340 339 338 337 337 336 333 332 335 340 342 343 345 345 344 343 343 343 344 345 344 343 343 344 344 344 344 344 344 343 343 343 343 344 343 344 344 343 344 344 344 344 343 343 343 343 342 342 341 339 336 336 338 338 338 340 342 344 345 344 344 344 346 345 344 336 331 338 340 340 341 341 342 342 342 341 342 342 341
348 347 346 346 342 339 339 337 336 337 337 336 333 334 338 341 343 344 345 345 344 343 343 342 343 345 344 344 344 343 343 344 344 344 343 342 343 343 343 343 343 344 344 344 344 344 344 343 343 344 343 343 343 342 341 341 338 336 337 336 338 340 341 343 344 344 344 344 344 343 342 337 336 340 340 341 341 341 340 340 341 340 341 341 341
351 349 347 345 341 339 339 337 336 336 337 336 334 336 341 343 344 344 344 344 344 343 343 343 343 344 344 345 345 344 342 343 344 344 343 342 342 343 343 342 342 344 344 344 343 343 344 343 343 343 344 343 343 343 342 342 339 337 336 336 340 341 342 343 343 342 343 344 344 342 339 336 338 339 339 340 339 338 337 337 337 337 338 340 341
350 348 347 345 340 339 338 337 336 338 338 337 337 340 343 344 343 343 344 344 343 343 343 343 344 344 344 345 345 344 343 343 343 343 341 342 342 343 343 342 343 343 343 343 342 341 343 343 343 344 343 343 343 343 342 341 339 338 337 337 340 341 343 343 342 343 345 344 344 343 338 335 337 338 338 338 337 336 337 336 335 334 334 336 339
349 347 348 344 340 339 337 337 338 339 339 338 340 342 344 344 343 342 343 343 343 343 343 344 345 344 344 344 344 343 344 343 342 341 341 342 342 342 342 342 343 344 343 343 342 342 343 343 343 343 343 343 343 343 342 340 339 338 337 338 338 338 341 341 341 344 345 343 343 341 338 338 338 338 339 339 338 338 337 336 335 334 334 334 336
350 348 347 344 339 338 336 337 339 339 339 338 340 341 342 343 342 341 341 342 342 343 344 344 345 345 344 344 344 342 343 343 341 341 340 341 341 341 341 341 342 342 342 343 342 342 342 342 342 343 343 343 342 342 341 340 339 338 337 336 334 335 339 341 342 344 343 342 341 338 339 340 339 338 339 340 340 339 337 336 335 335 335 335 335
351 349 348 344 339 337 335 337 339 339 338 338 340 341 343 343 342 341 340 341 342 343 344 344 344 344 344 344 343 342 342 342 341 341 341 341 340 340 341 341 341 341 341 342 341 340 341 341 342 342 342 342 341 341 341 339 338 338 337 335 335 339 342 343 343 342 342 342 340 339 341 340 339 339 340 340 340 339 337 335 334 335 335 336 335
350 349 349 344 338 336 334 337 339 338 338 338 341 343 343 343 343 342 341 342 342 343 343 344 345 344 344 344 343 342 342 341 341 340 340 340 339 339 340 340 340 341 342 341 341 340 341 342 342 341 340 340 339 340 340 339 338 338 337 336 339 343 344 345 344 342 343 343 340 340 341 340 339 340 341 341 340 339 338 335 334 334 335 336 336
350 350 349 344 338 336 335 337 337 335 336 338 342 344 344 343 343 343 342 342 342 342 343 344 345 343 343 345 343 342 342 342 342 340 339 340 339 338 339 339 340 340 341 341 341 341 341 342 341 339 338 339 339 339 338 337 337 337 335 335 339 344 345 346 347 346 345 343 342 342 340 339 339 341 341 341 341 340 339 338 335 335 335 335 336
350 350 349 346 344 343 341 338 335 335 337 340 342 343 343 343 343 343 342 342 342 342 342 343 344 343 344 345 343 342 342 343 343 341 340 340 338 337 338 338 339 340 341 341 341 341 341 340 340 339 338 339 338 338 337 337 337 336 335 335 338 342 344 345 346 345 344 343 341 341 340 339 340 341 342 341 341 341 340 339 338 336 336 336 336
351 350 349 349 349 347 345 342 339 339 341 342 343 343 343 343 343 343 343 343 342 342 342 342 343 344 343 345 344 342 343 344 343 340 339 340 338 337 337 337 339 341 341 341 341 340 340 340 339 338 338 338 337 338 337 336 336 336 336 336 339 342 344 346 346 345 345 341 338 340 341 340 341 341 342 341 340 340 340 340 339 338 338 337 336
352 351 351 350 350 347 346 347 345 344 346 345 344 343 343 343 343 343 343 343 342 342 342 342 344 344 342 343 344 343 344 344 343 341 339 339 339 337 337 338 339 340 340 340 340 340 340 340 339 338 337 336 336 336 336 336 337 338 339 339 342 344 346 348 347 346 345 338 338 341 341 341 341 341 341 341 341 340 340 340 340 339 339 339 337
353 352 352 351 351 349 347 350 349 347 349 346 344 344 343 343 343 342 343 343 342 342 342 342 344 343 342 342 341 342 344 344 343 341 339 339 339 340 340 339 338 337 338 339 339 339 339 339 338 337 336 335 336 336 336 336 338 340 341 342 345 347 348 349 347 346 344 338 340 342 341 341 341 341 341 340 340 340 340 340 340 340 340 339 338
353 352 353 352 352 351 350 352 350 347 349 347 345 344 342 343 343 343 344 343 342 342 341 343 344 343 342 342 340 342 343 343 343 341 340 340 339 340 340 339 337 337 337 338 339 339 338 338 337 335 334 334 335 335 336 337 339 340 341 343 346 348 349 349 347 346 345 340 341 341 340 341 341 340 340 340 340 340 340 340 340 340 340 339 338
354 354 354 353 354 353 353 353 348 346 349 348 346 344 343 343 343 344 344 344 344 343 342 342 343 343 343 343 343 343 342 343 342 340 340 340 340 339 338 338 338 337 336 337 338 338 338 337 337 337 336 337 337 336 337 337 338 340 343 345 346 346 347 348 348 345 344 341 340 340 340 340 340 340 341 341 340 340 341 341 341 340 340 339 336
354 354 354 354 354 354 354 352 347 345 348 348 346 345 344 344 344 344 343 343 343 344 343 342 342 343 344 344 342 340 341 343 341 338 339 340 340 340 338 339 338 337 336 336 338 338 338 338 339 340 340 341 341 341 341 341 341 342 344 344 343 344 345 346 346 342 338 337 335 337 339 340 340 340 341 341 341 341 341 341 341 340 340 337 334
352 353 353 354 353 353 353 349 346 347 349 348 347 346 346 347 346 346 345 344 343 343 342 341 343 344 346 347 345 343 342 343 343 342 341 341 341 341 340 340 339 338 337 337 339 341 343 343 343 343 342 342 342 342 342 343 342 343 343 343 343 344 344 345 345 340 333 330 329 331 336 339 340 341 342 342 341 342 341 341 341 341 339 335 332
351 351 352 353 352 352 351 348 347 348 350 350 349 347 347 350 351 350 350 349 348 347 346 345 347 347 349 349 348 348 347 346 346 345 344 343 342 341 342 342 342 342 341 342 343 344 346 347 345 345 344 343 343 343 342 342 341 341 342 344 344 343 343 344 346 341 331 328 327 327 331 336 340 341 341 341 341 342 342 341 341 340 337 333 333
350 351 351 351 351 351 349 349 349 348 350 350 350 349 349 352 352 351 352 352 351 350 350 350 349 350 350 350 349 350 350 349 349 348 347 346 344 342 344 344 344 343 343 345 344 344 346 348 347 347 346 344 344 344 344 342 342 342 342 344 343 343 344 344 345 340 331 329 329 327 328 331 335 336 337 339 339 339 340 341 339 337 334 333 335
350 351 351 350 350 349 349 350 349 348 350 351 351 352 354 354 351 351 352 351 352 352 351 350 349 351 352 351 351 350 350 349 349 349 348 347 347 347 348 347 345 344 344 344 342 341 345 348 349 349 348 346 345 344 345 344 343 343 343 344 344 343 343 344 345 343 336 331 331 330 328 329 330 331 332 333 334 333 334 335 335 334 334 336 337
349 350 349 349 348 348 349 350 349 349 350 352 353 353 354 353 351 352 350 350 353 352 350 350 350 351 351 352 352 350 351 349 349 348 348 349 350 349 349 348 347 348 348 348 346 344 347 348 348 349 348 347 348 347 346 346 345 345 344 344 344 344 344 345 346 346 343 336 332 333 332 331 331 331 331 331 331 331 332 333 334 336 337 338 338
347 348 348 347 347 348 349 350 349 349 352 353 353 353 353 353 353 351 349 351 353 350 350 350 350 350 348 350 352 351 351 349 349 348 348 351 351 350 349 348 349 349 349 350 349 349 349 350 349 349 349 348 349 348 347 346 345 346 346 345 345 345 345 345 345 346 347 341 335 335 335 335 335 335 335 335 335 335 335 336 337 338 338 337 338
346 347 347 346 347 348 349 350 348 349 353 354 353 353 353 352 351 348 348 350 349 349 350 350 350 349 345 344 348 352 351 349 348 347 349 351 350 350 350 348 349 349 348 350 350 350 350 351 351 351 350 350 349 348 347 345 346 346 346 346 345 346 346 346 346 345 347 345 339 335 335 335 335 336 336 336 336 336 336 336 337 337 336 336 335
345 345 346 346 347 348 349 350 347 347 353 354 351 351 353 350 347 348 348 347 348 349 350 349 349 346 341 341 343 348 349 346 347 348 350 352 350 351 351 350 350 349 349 350 350 349 349 349 351 352 351 350 350 349 348 347 346 346 346 347 347 348 347 346 345 345 345 346 344 340 336 334 334 334 334 334 334 334 334 335 334 334 333 332 332
343 344 345 345 347 348 349 350 346 345 352 353 351 351 352 349 348 349 347 345 348 349 349 349 347 343 340 340 340 342 343 343 344 349 352 352 352 352 351 352 351 348 347 350 350 349 350 349 350 352 351 350 350 349 349 348 347 347 346 346 348 348 348 347 345 345 344 345 346 345 341 338 337 335 333 332 332 332 332 331 331 331 330 329 329
344 344 345 345 346 348 348 350 347 346 351 352 351 351 351 349 349 349 345 346 349 348 349 348 343 342 340 340 341 341 341 342 343 349 352 351 352 352 350 352 351 347 346 349 349 348 350 351 350 350 350 349 350 350 348 348 347 347 345 345 347 347 347 347 345 346 346 345 346 347 346 344 341 339 337 335 334 334 333 331 330 328 327 326 326
344 344 345 346 346 348 347 349 348 347 350 350 350 351 350 349 349 348 346 348 349 348 348 347 345 343 341 340 342 342 343 343 342 348 352 351 351 352 352 350 350 350 348 350 350 349 350 351 350 349 350 349 349 350 350 348 347 346 346 346 347 347 347 347 346 346 346 347 347 347 347 347 345 343 342 339 334 332 333 332 329 327 325 325 324
343 344 346 346 347 347 347 348 347 348 350 349 350 350 350 349 349 349 348 348 350 349 348 348 348 347 345 342 342 342 343 343 342 347 353 352 351 353 352 348 350 351 348 350 353 351 350 350 351 350 350 350 348 350 350 349 348 347 346 346 347 348 348 348 348 347 347 347 346 345 346 346 345 343 343 342 337 331 329 329 327 325 324 324 324
343 344 345 346 347 346 346 347 347 348 349 348 348 348 349 349 349 349 348 349 350 350 349 350 350 351 351 345 341 343 342 342 343 346 353 354 352 354 351 347 351 350 347 352 353 352 351 349 350 352 352 351 348 348 349 349 348 347 346 346 347 348 348 348 347 347 347 347 345 345 345 342 342 343 345 346 343 335 329 327 326 325 324 325 324
343 344 346 346 347 346 345 347 348 348 346 343 345 347 347 347 349 350 349 350 351 350 351 352 352 353 354 346 341 342 341 342 343 344 352 353 351 353 350 347 349 347 348 353 353 353 354 352 350 350 352 353 351 348 348 348 347 347 345 345 347 347 347 347 347 347 346 345 344 344 344 343 343 344 344 345 344 340 334 329 328 327 325 325 325
343 344 346 347 347 346 346 347 348 349 345 339 343 346 345 345 349 350 349 351 352 351 351 352 353 354 353 346 341 343 341 342 343 344 350 352 351 353 349 347 348 348 352 354 353 351 350 350 350 349 350 352 352 351 348 347 347 346 346 345 346 347 347 346 346 346 344 343 344 345 344 344 345 343 342 344 345 344 338 332 336 336 329 325 327
343 344 346 347 347 347 347 348 348 349 344 338 341 346 346 346 350 351 349 352 353 352 353 352 353 354 351 345 343 344 342 343 344 343 347 351 353 352 348 348 350 349 352 355 355 350 345 345 348 348 351 352 351 351 349 348 347 345 345 345 346 346 345 346 345 344 343 342 344 345 343 343 345 344 344 345 346 345 337 332 342 347 339 329 327
343 345 347 347 348 348 348 349 349 348 344 340 343 348 349 349 351 351 350 352 353 353 353 353 354 354 349 345 345 345 343 344 344 344 345 348 351 350 346 347 351 349 349 353 351 346 342 343 344 346 350 353 352 350 348 349 347 345 345 344 344 345 343 344 345 343 344 342 343 344 342 342 343 343 343 342 344 345 340 338 346 351 344 335 332
345 346 348 348 348 349 349 349 349 348 345 344 345 350 351 350 351 351 351 353 353 353 354 354 354 353 347 344 346 346 345 345 345 345 345 346 348 348 343 344 350 348 344 346 344 341 343 344 345 348 350 353 354 350 348 349 348 345 345 344 343 344 343 345 344 343 344 343 342 342 342 344 344 343 343 343 344 345 345 347 348 347 339 338 343
346 346 348 348 348 350 350 349 349 348 348 346 346 350 351 351 352 351 352 353 353 353 354 354 353 351 348 345 346 346 345 345 345 345 345 346 348 349 348 345 346 346 344 344 344 343 342 342 349 353 352 352 352 350 348 349 348 344 344 344 343 344 345 345 344 343 343 343 342 340 342 343 342 343 344 345 346 345 347 347 343 338 331 336 345
347 346 348 348 348 351 350 349 348 346 349 347 345 352 352 350 353 353 354 354 353 354 354 354 352 350 351 348 346 345 345 347 346 346 348 346 345 351 353 348 344 344 343 343 345 345 344 347 351 351 352 352 351 350 349 348 348 347 346 344 343 345 346 344 343 343 342 342 342 340 341 343 341 344 346 346 346 344 347 345 338 333 330 331 335
347 347 348 348 348 350 348 347 347 345 348 344 341 351 350 348 353 354 355 355 353 354 354 354 353 352 353 351 348 344 345 350 347 348 353 347 344 350 350 347 345 343 345 347 350 351 350 351 349 347 353 354 351 350 350 349 348 347 348 346 345 346 346 345 344 344 344 341 340 338 341 343 340 343 346 344 343 343 347 345 339 335 331 332 335
348 347 348 347 347 350 347 345 346 345 347 341 336 346 346 342 347 351 354 354 353 354 354 354 353 352 354 353 350 345 347 353 349 349 354 347 343 346 345 349 350 344 347 352 352 350 350 352 349 349 354 353 352 353 350 350 349 347 348 348 348 349 348 348 345 345 345 342 340 339 341 342 339 341 344 342 344 345 346 345 344 345 342 342 344
348 347 347 347 347 351 349 343 343 345 346 340 333 339 341 340 344 349 353 353 353 354 352 353 352 351 353 352 353 350 348 353 352 349 350 346 344 344 343 351 354 349 346 349 351 350 351 354 353 353 355 351 351 354 352 351 350 349 350 349 349 349 349 349 347 345 345 343 342 341 340 341 340 342 344 343 345 344 344 345 345 349 348 346 346
348 347 347 348 348 352 350 343 342 345 346 342 334 334 337 339 342 348 353 352 352 354 352 353 352 351 354 353 355 354 347 352 355 348 346 345 344 345 345 347 353 354 348 349 353 353 352 352 350 350 350 346 347 350 352 351 351 352 351 350 349 348 347 348 347 346 345 343 343 342 341 341 341 342 343 343 344 343 343 345 345 347 347 345 345
349 348 347 348 349 353 352 346 343 344 344 342 337 332 334 338 341 346 352 351 350 352 352 353 353 352 354 353 355 355 347 348 353 347 344 346 343 344 345 343 349 353 350 353 355 352 351 348 345 345 345 346 346 347 350 351 352 352 350 351 351 348 347 347 346 346 346 345 343 342 341 342 342 342 344 344 343 344 345 344 344 345 348 348 347
349 350 349 348 351 353 351 346 343 343 343 341 338 334 331 334 338 344 350 350 350 351 351 353 353 351 352 353 352 353 351 349 349 345 342 344 344 345 345 343 348 352 351 355 356 351 348 343 344 348 347 349 348 346 349 351 352 353 352 353 353 350 350 347 345 347 346 345 344 342 341 342 342 341 344 346 345 345 346 345 345 346 349 350 350
350 351 351 349 352 354 350 344 342 342 341 340 340 338 332 330 333 339 345 347 349 351 352 353 351 348 350 353 350 349 353 354 351 347 344 346 345 344 347 350 351 353 352 354 355 353 350 349 350 348 345 347 348 347 351 352 351 353 353 353 352 351 351 349 348 348 346 345 346 345 343 342 343 342 343 344 345 345 346 346 348 348 349 351 352
Wind_Speed
18 20 19 19 21 20 20 19 18 18 18 17 16 15 14 13 12 12 11 12 11 11 11 11 11 11 12 12 12 11 10 9 9 9 9 10 9 10 9 9 9 9 10 11 11 12 12 12 12 12 13 14 15 14 14 15 14 14 14 15 17 16 16 17 16 17 18 18 19 19 18 18 17 18 18 19 20 19 17 15 14 13 14 15 16
21 21 20 20 21 21 19 18 18 17 17 17 16 15 14 13 12 12 12 11 11 11 11 11 11 11 11 11 11 11 10 9 9 8 8 9 9 9 9 8 9 9 10 10 11 12 12 11 11 11 13 14 14 14 14 15 15 14 14 15 16 16 16 17 16 17 18 18 19 18 19 20 19 19 18 19 21 19 16 14 14 13 14 15 15
22 22 21 21 21 21 20 19 19 18 17 17 16 16 15 13 13 12 11 11 11 11 12 12 12 12 11 11 10 10 9 9 8 8 8 8 8 8 8 9 9 10 10 10 10 11 12 11 11 11 12 13 14 14 14 15 15 14 13 15 16 16 17 17 17 17 18 18 18 18 20 21 20 20 20 20 20 18 17 16 15 15 15 15 15
23 23 22 20 21 21 21 21 20 18 17 16 16 16 15 14 13 12 11 11 11 12 12 12 12 11 11 10 10 9 9 8 8 8 8 7 7 7 8 9 9 10 9 10 11 11 11 11 11 11 12 13 14 15 14 15 16 15 15 16 16 17 17 17 18 17 18 18 18 18 20 21 20 20 21 20 19 18 18 17 16 16 16 15 16
23 23 21 20 20 21 20 20 20 18 17 16 16 16 15 14 13 12 12 11 11 11 11 11 11 10 10 9 9 9 9 9 9 9 8 8 8 8 8 8 8 9 9 10 11 10 11 11 11 11 12 12 14 15 14 16 17 16 17 17 17 18 18 18 18 18 18 18 17 18 19 19 18 18 19 19 18 18 17 16 15 16 15 15 16
23 23 20 19 18 19 19 18 19 18 17 16 15 15 15 14 13 13 12 11 11 11 11 11 11 10 10 10 9 9 9 9 10 9 9 9 9 8 9 9 9 9 9 10 11 11 11 11 12 12 12 12 14 15 14 16 18 17 17 17 17 17 18 19 18 19 18 18 18 17 18 18 17 18 17 17 17 16 16 15 15 15 14 15 15
23 22 20 19 18 18 17 16 16 16 16 16 15 15 15 15 13 12 11 11 11 11 11 10 10 10 11 10 10 9 10 10 10 10 10 10 9 10 10 10 10 9 9 10 11 11 11 11 12 13 13 13 15 15 15 16 18 19 17 17 18 17 18 19 18 19 18 18 16 15 17 16 16 17 17 16 15 15 15 14 14 14 14 15 15
22 22 20 19 19 18 18 16 15 15 16 15 14 15 15 14 12 11 11 11 11 10 10 10 10 10 11 11 10 10 11 11 11 10 10 10 10 11 11 10 10 10 10 11 11 11 11 12 13 13 14 15 16 15 15 15 18 19 18 17 18 17 17 18 17 16 16 17 15 14 16 15 15 18 17 15 14 14 15 15 14 14 14 14 14
22 21 20 19 19 18 18 17 16 16 16 14 14 15 15 13 11 10 11 11 10 10 10 10 10 11 11 11 11 11 12 12 12 11 11 11 11 11 11 12 12 12 11 11 11 11 12 12 13 14 14 15 16 17 15 16 18 19 18 18 18 17 16 16 14 14 16 17 15 14 16 15 16 17 16 15 14 13 14 15 14 14 14 14 14
21 20 19 18 18 17 17 17 16 16 14 13 14 15 13 11 10 10 10 10 10 10 10 10 10 11 11 12 12 12 12 12 12 12 12 11 11 11 12 12 13 13 13 12 12 12 12 12 14 15 15 16 16 18 17 17 17 17 18 18 17 16 17 17 13 12 15 16 14 14 16 15 16 15 15 15 14 14 13 14 13 13 14 14 14
20 20 19 18 16 15 16 16 15 14 13 13 13 13 12 11 10 9 9 9 9 10 10 10 11 11 12 12 12 13 13 12 12 13 13 12 11 12 12 13 13 13 13 13 12 12 13 13 14 15 16 16 17 18 19 18 17 16 17 17 17 16 18 18 13 12 13 15 15 14 15 15 15 15 15 15 14 14 13 13 12 12 12 13 14
22 20 20 18 15 15 15 15 14 14 13 13 13 12 11 10 9 8 9 9 9 10 9 10 11 11 12 13 12 13 13 13 13 13 13 13 12 12 12 13 13 14 14 13 13 13 14 14 15 15 16 17 17 19 20 19 17 16 16 16 15 16 19 17 13 14 14 16 17 15 15 15 16 16 15 15 14 14 13 13 13 12 12 11 13
23 21 20 18 16 15 15 16 15 13 12 13 13 11 10 9 9 8 8 9 9 9 10 11 12 12 12 13 12 13 13 13 13 13 13 13 13 13 14 14 14 14 14 14 14 14 14 15 15 15 16 17 18 19 20 20 19 17 16 16 15 17 18 15 15 17 16 18 17 15 15 14 16 16 15 14 14 14 14 14 14 14 13 12 12
23 21 20 17 16 16 16 16 14 13 12 13 12 10 9 9 9 8 8 9 9 9 10 11 12 12 13 13 13 13 13 13 14 14 14 14 15 14 15 15 15 15 15 15 15 15 15 15 15 16 17 18 19 20 20 20 20 19 18 18 18 17 16 15 16 17 16 17 16 15 14 14 15 15 15 14 14 14 14 14 14 14 14 13 12
21 21 20 17 16 16 16 15 14 12 12 12 12 10 9 9 9 9 8 9 10 9 11 12 12 12 12 12 13 14 13 13 14 14 14 15 15 15 15 16 16 17 16 16 15 15 16 16 16 17 18 18 20 20 20 20 20 20 19 19 19 17 16 16 17 16 16 16 15 14 13 14 15 14 14 13 13 14 14 14 14 14 15 14 14
20 20 19 18 16 16 15 13 12 12 12 12 11 10 9 10 10 9 9 9 10 10 11 12 12 13 12 12 13 14 14 14 14 14 14 15 15 16 16 16 17 18 17 16 16 16 16 16 17 18 19 19 19 20 20 20 20 19 18 17 18 17 15 16 15 15 15 15 13 13 13 13 14 13 13 12 13 13 13 14 14 14 14 14 14
20 20 19 17 16 15 13 12 11 11 11 11 10 9 9 10 10 10 10 9 10 10 11 12 12 13 13 13 13 14 14 14 14 14 14 14 15 15 16 16 17 18 18 17 16 16 16 17 18 19 19 19 19 20 20 20 20 19 18 17 19 18 16 16 14 14 15 14 12 12 12 13 13 13 12 12 12 12 12 12 13 14 14 14 14
19 20 19 18 16 15 13 12 11 10 10 9 9 9 9 9 10 10 10 10 9 9 11 12 13 13 13 13 14 14 14 14 14 14 14 14 14 14 15 16 17 19 19 18 18 17 17 17 18 19 19 19 19 20 19 20 21 20 20 19 20 20 17 16 14 14 15 13 12 12 13 13 13 12 12 12 12 12 11 11 12 12 13 13 13
19 19 18 17 18 16 14 13 12 10 9 8 9 9 8 9 10 10 11 10 10 10 11 12 13 13 13 14 14 14 14 14 14 14 13 14 14 14 15 16 17 19 19 19 19 18 18 18 19 19 19 19 19 19 19 20 21 21 21 20 21 20 16 15 14 13 13 12 12 13 13 13 13 12 11 11 11 11 11 11 11 11 12 12 13
18 17 17 16 15 15 13 13 12 10 9 8 9 9 9 9 10 10 11 10 11 11 11 12 13 13 14 15 15 14 14 14 13 13 13 14 15 16 15 16 17 19 19 19 19 18 18 19 19 20 19 19 19 19 19 19 20 21 20 20 21 18 14 13 13 13 12 11 11 12 13 12 12 12 11 10 11 11 10 10 10 10 11 11 12
17 16 15 14 12 12 13 13 12 11 10 9 8 9 9 10 10 11 11 10 11 11 11 13 13 14 14 15 16 15 14 13 12 12 12 14 15 16 16 16 18 19 19 19 18 18 19 20 20 20 19 19 19 19 19 18 19 19 18 19 19 15 13 12 12 12 11 10 10 12 12 11 11 11 10 10 10 10 9 9 10 10 10 11 11
17 16 15 14 12 11 12 13 11 11 11 9 8 9 9 10 10 11 11 10 11 11 11 12 12 13 15 14 15 14 14 13 12 12 13 14 15 15 16 17 18 19 19 19 19 19 19 20 20 19 19 19 19 19 18 18 18 17 17 18 15 12 13 12 11 11 10 9 10 11 11 10 10 10 10 9 9 9 9 9 10 10 10 10 11
17 16 15 14 13 13 12 12 11 11 11 10 9 9 9 10 10 10 11 11 13 13 12 11 10 12 14 13 14 14 14 14 12 13 14 14 14 14 16 17 17 18 19 19 19 18 18 18 19 19 17 17 17 16 16 16 16 16 16 15 13 13 13 12 10 9 9 9 8 9 9 9 9 9 9 9 8 8 8 9 9 9 9 9 10
17 16 16 14 14 14 13 12 11 11 11 9 9 9 9 10 9 10 10 11 14 14 13 12 11 12 13 12 13 15 15 15 15 14 14 15 16 15 16 17 18 20 19 19 18 17 17 18 19 19 18 18 15 12 12 13 13 13 13 12 12 13 12 11 10 8 9 8 6 7 7 8 8 8 8 8 8 8 8 8 8 8 8 8 9
16 16 16 15 14 13 12 12 11 11 10 7 7 10 10 11 10 10 11 11 13 14 13 13 12 13 13 12 13 16 16 16 16 14 14 15 16 16 16 18 19 19 18 17 17 17 17 17 18 19 19 16 11 10 10 11 11 11 11 11 11 11 10 10 9 8 9 7 6 6 6 7 7 7 7 7 7 7 8 8 7 7 7 8 8
16 16 16 15 14 12 11 12 12 12 11 8 7 7 9 11 9 8 10 10 11 12 11 10 10 11 12 11 9 12 12 13 15 13 12 11 13 15 17 17 16 15 16 15 13 14 15 17 18 18 16 12 10 11 11 10 10 10 11 11 10 10 10 10 9 9 9 8 7 7 6 6 6 6 7 6 7 7 7 6 6 6 6 7 7
15 15 15 14 14 12 12 12 12 11 11 9 8 7 6 9 9 8 9 9 9 10 10 8 9 10 11 9 9 10 9 10 14 12 11 12 12 14 16 16 14 14 16 15 12 13 15 16 18 16 12 11 11 12 11 11 11 10 11 11 10 10 9 10 9 9 9 9 9 9 7 6 6 6 6 6 6 6 6 5 5 6 6 6 6
15 15 14 14 13 13 13 12 12 11 10 9 8 8 7 7 8 8 9 9 8 8 9 9 9 10 10 9 8 9 8 8 11 10 11 14 12 12 15 14 13 14 16 16 15 14 15 16 17 13 10 11 11 11 11 11 11 10 10 10 10 10 10 10 9 8 9 9 9 9 9 8 7 7 7 6 6 5 5 5 5 6 5 5 5
15 15 14 13 13 13 13 12 12 11 10 10 9 8 8 8 8 7 8 9 8 7 9 9 8 9 10 10 8 7 8 8 9 10 12 13 11 12 13 13 13 14 14 13 13 15 14 14 15 12 10 11 10 10 10 10 10 10 10 10 10 10 9 10 9 8 7 7 8 8 8 8 7 7 7 6 6 6 5 5 5 5 4 5 5
15 14 13 13 13 13 13 12 12 11 10 10 9 8 8 8 8 8 8 8 8 8 8 8 8 7 9 11 10 9 7 8 9 9 12 12 10 12 11 11 13 14 14 11 10 13 13 12 14 12 10 10 10 9 10 10 9 9 9 9 9 9 9 9 9 8 7 6 6 7 7 7 7 6 6 6 6 5 4 4 4 4 4 4 4
15 14 13 13 14 13 13 12 12 12 11 9 10 9 9 8 9 8 8 8 8 8 8 7 8 7 8 10 13 12 8 9 10 9 11 10 9 12 10 10 12 12 13 11 10 12 11 12 13 12 10 10 9 9 9 10 9 9 9 9 9 8 8 8 7 7 6 5 5 6 6 6 6 6 6 6 5 5 4 3 3 3 4 4 4
16 14 14 14 14 14 13 12 12 13 12 9 10 10 9 9 9 8 8 9 9 8 7 7 8 8 9 9 11 13 10 10 11 9 9 8 8 11 10 10 10 10 12 12 11 12 12 14 14 11 10 10 9 9 9 9 9 8 8 8 8 8 7 7 7 7 6 5 4 5 6 7 7 6 6 6 5 4 4 3 3 4 4 4 4
15 14 14 14 15 14 14 13 12 13 12 10 10 10 9 9 9 9 9 10 9 8 8 7 8 9 10 10 10 11 11 10 11 11 8 7 8 8 10 10 9 10 12 12 10 11 12 13 12 10 9 9 9 8 8 8 8 8 8 8 8 8 7 7 7 6 5 5 5 4 5 6 7 7 7 6 5 5 4 4 4 4 5 5 4
15 15 15 15 15 14 14 13 12 13 12 11 10 10 10 10 9 9 10 10 8 8 8 7 9 10 9 10 10 10 11 10 11 12 8 7 7 7 8 9 9 10 10 12 10 10 12 10 10 10 9 8 8 8 7 8 8 8 7 7 7 7 7 7 6 6 6 5 5 5 3 4 5 6 6 6 6 6 6 6 5 5 5 5 5
16 16 15 16 15 14 14 13 14 13 12 12 11 10 10 10 9 9 10 10 9 8 8 8 9 9 9 9 10 10 11 9 10 12 8 6 7 6 6 7 10 8 8 12 10 8 11 8 7 10 9 8 8 8 7 7 7 7 7 7 7 7 7 7 6 6 6 5 5 5 4 3 3 3 4 5 7 8 6 6 6 6 6 6 6
16 16 16 16 15 14 14 13 14 14 12 12 11 11 11 10 10 10 10 10 9 8 9 9 8 9 8 8 9 10 10 9 9 12 9 5 6 6 5 7 9 7 9 12 8 5 8 7 7 9 9 8 8 8 7 7 7 7 7 6 6 7 6 6 6 5 5 5 4 4 4 4 3 3 5 6 7 8 7 6 6 6 6 6 6
16 17 17 17 15 15 15 13 14 14 13 13 13 12 12 11 11 9 10 10 9 9 9 9 8 8 7 8 9 9 9 9 9 11 10 5 6 6 4 7 7 6 8 9 6 5 6 7 8 8 8 8 7 7 7 7 6 6 6 6 6 6 6 5 5 5 5 4 4 4 4 3 5 7 7 5 5 6 7 7 7 7 7 6 7
16 17 17 16 15 15 14 14 15 15 14 14 14 13 12 12 11 9 10 10 8 8 9 9 9 8 8 8 9 9 9 9 8 10 10 6 6 6 4 6 6 6 8 7 5 6 5 6 7 7 8 7 6 7 7 6 6 5 5 5 5 5 5 5 5 4 4 4 5 5 4 3 4 5 5 4 3 4 5 6 7 7 7 7 7
16 17 17 16 15 15 15 15 15 15 15 14 15 14 13 12 11 9 10 10 8 8 8 8 9 8 8 8 9 8 9 8 7 8 9 6 5 5 5 5 5 5 7 5 4 5 6 6 6 7 8 6 6 6 6 6 5 5 5 4 4 5 5 4 5 4 4 5 5 4 4 4 4 4 5 5 3 4 3 5 6 6 6 6 6
17 17 18 17 16 15 16 16 16 16 16 15 15 14 13 13 11 10 11 10 9 9 8 8 8 8 8 8 8 8 8 8 7 7 7 6 4 4 5 5 4 5 7 5 3 3 5 6 6 6 6 5 5 5 4 4 4 4 4 5 4 4 4 4 4 5 5 4 4 4 5 5 5 4 5 5 4 2 2 5 6 3 3 5 6
18 18 19 18 17 16 17 18 17 16 16 16 16 15 14 13 12 11 11 10 10 10 9 8 8 8 8 9 8 7 8 8 7 6 6 7 5 4 5 6 4 4 7 5 4 4 5 5 5 5 5 5 4 3 4 4 4 5 4 5 5 4 4 4 5 5 6 5 4 4 5 5 5 6 5 5 6 3 2 4 5 2 1 3 5
19 20 20 19 18 17 17 18 18 17 17 17 17 15 14 14 12 11 10 10 10 10 9 9 8 8 8 9 8 8 8 7 7 6 6 6 5 4 4 6 5 4 5 4 3 4 4 4 5 4 3 4 3 3 4 4 3 4 5 6 5 4 3 3 4 5 5 5 4 5 5 6 6 6 5 4 5 4 3 4 3 2 1 3 3
20 20 20 20 19 18 18 18 18 18 17 17 17 15 15 14 12 10 10 9 9 9 9 9 9 7 8 8 8 8 8 8 7 6 6 6 5 4 4 4 5 5 4 4 3 3 4 4 4 4 3 3 3 3 4 4 4 4 6 6 6 5 3 2 4 5 4 4 5 5 5 6 6 5 4 4 4 4 3 2 1 2 3 5 3
21 21 21 21 20 19 20 19 19 19 18 18 18 16 15 15 13 10 9 9 9 9 9 9 8 7 8 8 7 8 8 7 7 6 6 6 6 6 4 4 5 4 4 4 3 2 3 4 3 5 5 3 2 3 4 4 5 5 4 5 6 5 4 5 6 5 4 4 5 5 5 6 6 5 4 5 4 4 3 1 1 3 4 5 4
22 22 22 22 21 20 21 21 20 19 19 19 19 17 16 17 17 14 11 10 11 10 10 9 8 8 8 8 7 8 8 7 6 7 5 5 7 6 5 5 4 4 4 4 3 2 3 3 3 5 6 3 3 3 3 3 4 6 5 4 6 5 4 5 5 3 2 4 6 5 5 6 6 4 3 4 4 3 3 1 3 4 5 5 4
23 22 23 22 21 21 21 21 21 20 19 19 20 19 18 18 18 17 14 12 12 10 10 10 9 9 8 8 7 7 8 7 6 7 6 5 6 6 6 5 4 4 5 4 3 3 3 2 2 4 3 5 6 3 3 3 3 5 6 4 5 4 3 3 3 2 1 2 5 5 6 6 5 5 4 4 4 3 4 1 4 5 4 4 2
24 22 22 22 21 22 22 22 22 21 20 20 20 21 19 18 18 16 13 12 12 11 10 9 8 8 8 8 7 7 8 8 6 7 7 6 5 5 5 6 4 3 4 5 3 2 3 3 3 4 4 7 8 5 4 3 2 3 4 3 3 3 3 3 3 3 1 1 3 5 7 6 5 6 5 5 5 3 3 2 1 1 1 2 1
24 23 23 23 23 23 23 23 22 22 21 20 21 22 20 19 18 15 13 12 11 10 10 9 8 8 8 8 8 7 8 9 7 7 7 6 5 5 5 6 6 4 3 4 3 4 5 4 5 6 6 7 8 7 6 4 2 2 3 3 2 2 4 3 3 3 2 2 3 4 6 6 6 5 4 5 5 3 3 3 2 2 1 1 1
24 24 24 24 24 24 24 24 23 22 22 20 20 22 22 21 20 17 14 12 10 10 10 10 9 9 9 9 9 8 8 10 9 8 7 6 5 5 5 6 6 5 4 3 3 5 6 5 5 5 5 5 6 7 6 5 3 2 2 3 3 3 3 3 3 3 2 3 3 4 5 5 5 4 3 4 4 3 4 3 2 3 2 1 2
24 24 24 24 24 25 25 25 24 24 22 21 20 21 22 22 21 19 16 14 12 10 10 10 10 11 10 9 10 9 7 8 9 7 6 6 5 5 5 5 5 5 5 4 4 4 4 4 4 4 5 5 5 6 5 5 4 3 2 3 3 3 2 2 3 3 2 3 2 4 6 5 5 4 2 3 4 3 3 2 3 4 2 0 1
24 25 24 24 25 25 25 25 24 25 24 22 20 21 22 23 22 21 18 16 15 13 12 12 12 12 11 9 10 10 8 7 8 7 6 6 6 6 5 5 5 5 5 5 5 3 2 2 3 3 4 5 5 5 4 4 4 4 3 3 3 3 3 2 2 3 3 2 3 2 3 3 3 5 3 2 3 2 3 2 3 3 2 1 1
Wind_Direction
136 133 129 127 126 126 126 124 123 126 128 126 125 124 123 120 115 108 99 92 89 89 91 93 94 94 92 91 89 90 94 99 104 107 108 106 103 101 102 105 105 104 105 108 106 105 104 103 103 102 100 98 96 92 90 92 92 92 90 93 96 95 94 95 95 95 96 96 96 93 87 81 80 85 94 107 110 102 95 92 88 88 90 89 85
135 131 128 127 122 122 123 125 126 127 128 127 128 126 123 118 110 102 95 92 91 90 90 94 95 94 94 95 96 98 103 109 115 118 117 114 112 109 107 104 99 100 102 105 106 107 107 105 104 102 100 98 97 94 90 92 93 92 91 93 94 95 95 94 95 96 97 97 97 92 85 79 79 85 96 110 111 102 99 96 94 96 93 88 84
134 132 130 129 123 123 124 128 130 130 128 128 130 125 118 112 106 100 98 97 95 92 90 91 93 95 97 97 97 97 99 105 112 117 118 116 115 111 106 103 97 98 100 103 105 106 108 108 106 102 99 98 97 95 95 96 94 95 95 94 95 96 95 94 95 97 99 99 95 90 83 78 80 86 92 102 106 101 99 96 95 97 91 88 88
134 133 133 131 127 126 127 130 132 131 129 129 127 119 114 110 106 103 102 100 96 94 93 96 98 98 96 94 92 92 96 102 103 107 115 116 117 112 101 100 98 98 99 99 101 103 107 109 108 103 100 100 97 94 96 95 94 99 99 95 96 97 96 95 95 98 100 99 95 87 81 79 83 87 88 92 94 95 97 97 98 95 90 90 90
135 134 133 130 128 127 125 128 131 133 131 127 121 115 114 112 107 103 99 98 99 99 100 103 102 98 94 93 94 95 99 103 101 103 109 111 114 114 104 100 102 104 101 98 100 102 105 106 106 105 103 103 99 96 97 96 98 101 102 99 98 99 97 94 95 98 98 98 95 89 82 79 86 91 90 91 92 93 94 95 94 92 92 91 88
136 133 133 129 127 123 121 125 128 131 127 121 117 115 114 109 102 100 101 105 106 104 102 101 100 100 99 96 95 96 99 101 101 103 106 105 108 112 110 106 105 106 103 100 100 101 103 103 104 106 106 105 101 101 101 100 103 103 102 104 100 100 101 97 96 98 97 97 94 92 86 78 88 97 92 92 91 90 89 87 86 88 91 90 86
134 133 133 130 127 122 120 125 125 124 122 121 120 116 109 103 101 104 111 112 106 101 99 98 99 100 99 96 93 93 96 99 100 103 104 104 105 107 109 108 106 105 103 102 101 102 102 101 103 105 106 106 104 104 105 104 106 105 104 105 101 100 100 98 99 99 98 98 95 94 90 81 91 100 94 90 88 86 84 81 81 83 86 87 86
135 135 135 132 128 125 124 126 126 124 126 128 123 111 104 103 107 113 115 110 102 99 98 97 98 96 95 95 96 95 96 99 99 99 99 101 102 104 107 106 106 105 103 103 103 103 103 103 104 104 103 102 104 105 106 106 106 108 109 105 101 99 96 94 96 98 99 99 100 99 90 86 98 102 95 89 86 84 81 77 76 79 85 87 86
138 137 137 134 131 128 125 127 129 131 132 127 115 106 103 106 111 113 111 106 101 99 97 97 98 98 97 98 99 98 98 99 100 99 97 96 97 100 103 103 103 103 102 102 103 104 103 105 104 104 103 102 105 106 106 106 107 111 110 105 102 100 96 95 96 97 98 99 100 96 89 90 100 99 94 90 85 81 78 77 75 77 83 86 85
136 139 138 135 135 132 128 129 131 131 126 117 109 105 105 108 112 112 109 104 101 101 99 97 98 99 100 101 100 98 98 98 100 101 98 97 98 97 97 98 100 101 100 100 103 105 103 104 105 104 104 105 106 106 108 107 108 111 108 105 102 99 97 94 94 96 97 98 94 91 92 97 100 96 94 91 84 80 77 77 77 78 82 85 85
134 138 137 137 138 135 129 127 127 125 119 114 108 108 114 116 116 116 111 104 101 99 97 97 99 100 98 100 100 99 99 98 98 99 96 95 96 95 95 97 99 100 100 100 103 106 106 105 105 106 107 110 109 109 112 110 108 106 102 102 98 96 93 87 89 94 93 93 89 87 95 101 100 97 94 90 86 83 80 79 79 81 84 86 87
139 140 138 140 140 135 131 128 127 124 120 116 111 115 121 121 120 120 112 105 103 99 97 98 101 103 101 101 101 99 100 99 97 96 96 96 94 93 95 96 98 99 100 101 102 105 106 105 106 108 110 113 114 114 114 110 107 104 101 101 97 94 90 91 105 107 103 102 101 100 102 103 101 98 94 92 90 86 81 78 77 79 84 90 91
138 138 136 138 140 138 136 132 130 127 123 118 118 122 124 125 124 121 113 108 105 102 101 100 103 105 104 103 101 99 99 99 98 95 95 96 93 92 93 94 98 100 101 100 101 104 103 103 105 109 112 114 115 115 112 110 110 109 106 103 102 99 98 108 117 111 112 113 111 109 106 105 103 100 98 96 92 87 81 74 73 77 81 89 95
131 133 134 138 140 139 138 134 132 130 126 122 124 127 130 133 128 122 117 112 108 106 105 105 106 105 105 106 104 103 101 100 98 95 93 93 92 91 92 93 97 99 100 101 102 103 101 102 105 108 113 115 116 114 111 111 112 111 109 108 108 109 111 114 110 108 110 107 105 106 108 108 105 102 100 96 91 86 80 73 72 76 79 85 92
129 131 135 138 140 138 138 135 133 132 127 126 128 134 140 137 133 128 121 117 116 113 108 108 108 107 109 108 107 106 106 102 96 93 91 92 93 93 94 94 96 97 98 102 103 103 104 106 107 108 112 115 115 113 112 112 112 112 112 114 115 113 112 108 103 104 102 99 103 107 111 109 104 101 99 95 90 84 78 74 73 76 79 82 86
131 131 131 135 138 137 137 135 134 133 129 129 132 140 143 138 135 129 123 121 118 114 110 110 110 110 111 109 107 106 106 103 98 94 93 94 94 94 95 96 97 96 98 100 102 104 105 108 108 109 111 112 113 112 112 112 112 112 112 118 119 113 108 103 100 101 100 102 107 110 110 107 104 100 98 95 89 84 78 76 74 76 79 80 81
132 130 132 135 136 136 134 132 131 129 128 131 137 141 141 137 133 127 122 119 118 117 114 113 112 111 112 110 106 104 106 105 100 96 96 97 94 93 94 96 98 98 99 100 102 103 103 106 108 111 113 113 114 112 111 110 109 109 108 115 116 111 108 107 107 109 109 110 110 109 110 108 105 101 98 94 88 84 80 78 77 76 79 80 79
132 132 134 134 135 138 137 130 124 124 128 134 137 135 138 136 130 125 121 118 119 118 114 113 111 110 113 112 106 106 107 104 100 98 99 100 97 95 92 95 99 99 99 100 101 102 102 105 109 112 113 113 113 110 108 109 108 107 106 111 113 108 108 109 109 107 107 111 112 111 113 110 105 101 98 94 91 88 85 83 80 78 80 82 81
133 134 135 136 144 147 141 134 129 131 134 135 132 130 136 132 126 123 118 120 120 116 113 112 111 112 114 112 109 109 108 104 103 103 104 104 102 98 93 94 97 98 99 99 100 102 105 107 109 110 110 110 109 108 108 109 109 108 107 110 106 101 102 104 103 102 101 106 111 110 111 108 104 104 101 97 94 89 87 87 86 83 82 82 80
133 135 136 140 150 150 142 139 135 133 133 134 131 132 134 128 125 120 117 122 121 119 118 114 115 116 113 113 115 115 110 108 106 105 108 106 105 103 98 98 98 97 96 96 98 102 107 108 108 108 108 107 107 108 109 111 111 108 109 108 99 95 101 102 102 104 104 108 110 109 106 103 102 103 101 97 94 91 89 90 89 86 83 80 76
136 139 140 143 148 144 140 139 137 136 138 140 137 136 134 129 130 124 120 123 122 122 122 118 119 118 116 116 116 116 112 110 106 105 108 104 105 107 105 102 99 97 96 96 98 102 106 106 105 104 104 104 104 106 109 111 109 107 109 104 96 97 102 100 100 104 108 111 109 107 104 102 101 99 97 94 93 94 94 91 88 85 81 77 74
141 143 144 146 146 144 140 137 142 145 144 147 143 143 141 137 137 131 127 127 123 124 122 121 124 122 119 116 114 115 112 113 113 111 109 104 104 107 105 101 99 98 98 99 102 103 105 105 103 100 100 101 101 103 106 107 105 107 104 96 97 104 103 101 104 108 109 109 109 109 107 106 102 98 98 95 93 94 93 90 86 82 77 76 73
147 147 148 149 149 148 143 142 148 146 143 147 146 149 149 139 135 132 132 130 127 129 127 126 127 121 113 112 118 124 119 118 119 113 111 107 104 103 100 99 101 103 103 103 105 104 102 102 100 98 97 95 92 96 100 99 99 98 93 93 104 106 103 103 104 107 106 105 109 109 110 109 104 103 102 99 97 94 91 88 84 77 71 71 71
149 149 149 151 152 148 147 151 151 147 144 147 146 149 147 140 137 133 129 126 129 134 137 135 130 122 116 117 127 131 125 121 119 114 115 116 114 110 104 104 103 102 102 103 105 102 99 96 95 93 87 84 87 96 96 92 91 90 90 96 102 98 98 102 102 103 99 98 106 110 114 112 109 107 104 101 98 93 89 86 81 74 67 64 70
149 150 150 150 151 147 150 152 149 148 142 141 143 145 145 141 139 133 127 128 133 139 146 143 135 131 130 135 137 134 128 121 119 117 118 119 119 119 113 111 107 105 104 101 100 99 97 93 91 87 81 85 98 106 100 95 96 99 103 102 97 99 102 105 107 100 89 90 105 120 128 122 119 116 109 104 97 91 87 84 80 74 66 64 72
149 150 150 150 149 148 152 149 150 150 140 144 150 145 141 130 131 137 130 133 140 143 145 137 135 136 132 133 128 127 131 123 122 127 128 122 119 122 119 112 109 110 106 101 104 102 98 95 91 87 87 101 113 109 106 104 105 107 109 107 106 109 109 109 110 99 86 85 94 110 130 134 131 126 118 110 102 99 93 87 83 76 70 71 77
150 150 151 149 148 150 151 149 152 152 144 149 149 140 129 118 132 141 132 139 145 137 132 134 143 136 126 128 118 119 135 129 127 133 133 128 127 126 122 115 108 111 107 104 113 109 102 100 95 96 104 114 114 112 113 111 111 112 111 112 112 111 111 111 111 102 89 85 86 92 109 124 127 123 118 115 110 106 102 96 85 78 76 79 80
150 151 151 149 150 153 153 152 154 151 148 146 140 137 132 131 137 136 138 144 135 125 133 147 147 134 126 126 118 122 132 123 121 122 118 124 129 123 118 115 112 116 113 111 118 110 99 98 96 102 113 112 111 111 112 112 111 111 112 113 113 113 114 114 113 104 89 86 88 89 94 102 106 104 104 105 102 95 92 93 86 83 83 82 78
152 151 151 151 153 156 154 153 154 150 147 143 139 139 138 140 135 138 145 131 124 134 141 143 134 130 130 123 118 122 124 114 112 117 117 119 119 110 108 110 108 110 107 107 117 106 92 95 100 106 109 106 108 108 108 109 109 109 109 109 111 113 114 114 113 111 103 92 89 92 92 92 91 90 91 89 86 83 82 85 88 92 88 79 74
154 152 152 152 154 156 154 152 154 150 145 143 142 143 141 141 137 143 139 122 132 138 129 128 124 128 131 129 126 114 112 116 114 120 116 110 106 102 100 99 97 98 97 93 96 96 94 97 101 104 105 104 105 107 109 109 109 112 110 108 110 112 112 112 113 118 121 107 93 95 91 87 86 81 79 78 78 79 79 86 93 95 87 77 74
155 155 153 155 156 155 154 154 156 149 144 149 149 145 143 145 144 140 132 127 132 124 119 123 123 131 133 133 128 114 113 120 117 118 109 105 105 101 96 91 88 90 94 92 89 95 103 106 105 106 105 105 106 108 110 111 110 110 112 114 114 115 113 111 111 115 126 129 105 94 89 85 82 77 75 75 78 78 79 85 86 81 75 70 66
157 159 156 157 156 156 155 154 159 151 144 153 152 145 146 148 141 134 134 130 123 120 124 125 127 135 131 130 127 121 124 125 121 115 103 103 101 97 99 94 91 95 101 105 103 100 101 99 99 101 102 102 104 107 107 110 111 111 114 117 116 116 115 115 117 119 128 132 113 93 92 89 82 77 78 79 81 81 81 77 68 64 59 58 54
159 160 158 159 155 157 157 154 163 155 147 154 151 145 149 147 137 137 138 128 122 127 128 129 134 131 128 128 124 121 123 126 124 113 101 104 99 99 105 100 102 109 109 108 101 97 96 92 91 91 95 98 100 104 106 109 110 111 114 114 115 113 112 115 118 121 119 116 117 106 92 92 91 85 82 82 79 74 70 68 62 59 57 55 54
160 159 160 160 157 160 158 157 164 158 152 154 150 148 149 144 138 141 136 125 126 132 129 129 126 124 129 128 122 122 122 126 125 111 100 103 100 97 99 101 106 104 105 99 86 85 85 82 91 93 89 92 101 104 104 108 107 110 112 110 112 110 111 113 115 120 120 120 122 123 110 85 82 82 82 78 66 58 57 59 61 61 63 62 63
161 160 161 160 159 161 159 160 164 161 158 154 151 152 149 144 141 144 137 130 130 130 127 124 120 122 128 129 127 127 123 127 129 114 101 102 104 96 94 108 105 98 107 99 83 79 81 75 81 91 91 90 100 105 104 106 106 110 111 109 111 109 109 110 112 116 119 121 114 120 124 95 74 71 77 72 59 52 49 53 60 63 66 70 73
162 161 162 161 162 163 159 163 164 162 162 155 155 155 151 149 146 148 142 132 132 134 134 130 129 127 129 137 133 130 129 131 132 118 104 102 108 102 112 117 103 102 112 99 89 91 98 104 90 87 96 91 91 99 102 105 104 109 111 111 110 108 108 107 111 113 114 121 112 110 115 120 125 83 63 58 50 46 47 55 64 68 72 75 77
165 163 164 162 164 165 160 162 164 164 165 160 161 159 157 155 147 150 146 135 136 140 138 135 134 131 136 148 140 137 140 135 136 124 109 108 110 107 125 118 106 114 110 95 97 101 99 111 105 96 93 84 89 95 96 101 104 110 114 114 112 110 112 109 112 113 110 116 117 117 113 103 81 61 60 60 43 38 47 60 69 72 72 72 75
166 165 167 164 165 166 161 163 165 165 170 167 164 162 163 158 147 152 152 139 142 145 140 140 139 139 147 152 145 145 145 142 147 134 122 130 130 128 138 120 113 112 101 92 102 106 102 109 115 116 101 88 90 91 95 100 102 111 117 119 118 114 112 111 115 115 102 99 112 123 118 106 82 78 110 112 64 42 53 68 76 73 67 69 73
169 168 168 166 166 166 163 166 167 166 172 171 166 165 166 160 150 158 158 145 148 151 146 147 143 147 157 154 146 147 151 151 154 145 134 133 133 138 140 118 112 102 93 90 95 105 116 117 122 123 109 100 96 92 98 97 95 109 121 123 118 116 115 110 111 110 108 106 117 132 118 118 124 107 113 118 78 42 54 80 81 67 57 65 71
170 171 170 169 168 167 167 168 166 169 173 172 169 166 165 162 157 165 163 155 159 156 151 152 146 153 164 156 149 151 155 156 160 158 143 134 133 140 134 118 115 115 108 104 105 114 118 118 126 125 115 111 101 96 95 91 101 108 116 126 120 118 116 117 123 118 118 111 104 130 124 114 127 117 103 120 123 82 52 82 85 69 48 66 71
172 173 172 172 171 169 173 170 166 173 175 172 171 167 166 166 165 170 168 165 166 160 156 154 151 166 171 157 153 155 157 160 162 161 152 146 144 142 134 122 118 130 128 128 137 131 117 116 128 129 121 114 101 100 99 93 103 106 116 131 126 123 112 111 130 127 123 119 96 110 129 119 117 124 121 123 127 119 49 67 85 96 35 74 72
174 176 174 174 174 172 176 173 168 174 176 174 173 170 171 169 168 170 169 172 169 162 161 155 160 180 175 161 161 161 159 159 157 159 154 143 139 137 131 131 137 141 131 125 130 127 123 123 122 120 121 113 99 107 118 100 89 109 125 131 125 123 124 124 140 139 130 130 118 108 123 126 115 118 126 117 111 105 69 66 99 153 119 90 73
177 178 177 176 176 175 179 175 173 175 175 178 176 173 173 169 168 169 167 172 169 162 160 160 171 180 169 165 167 164 160 156 157 159 152 146 145 131 121 138 144 139 131 124 125 130 134 127 117 122 125 121 108 102 111 98 85 110 125 133 131 115 112 135 138 134 125 134 142 124 117 125 120 122 135 125 114 118 120 118 135 125 89 87 92
180 180 179 180 178 181 183 177 178 178 175 182 178 173 176 170 164 166 166 166 164 162 161 166 172 161 162 172 170 166 161 156 160 154 151 163 150 134 145 159 148 144 140 122 113 110 120 120 135 136 119 109 117 105 103 90 92 119 129 136 133 115 111 130 134 129 119 128 133 123 124 129 122 123 134 133 131 130 144 161 49 75 77 81 91
183 182 181 183 180 184 187 179 181 181 179 186 181 175 180 176 167 165 166 162 162 167 165 169 171 156 163 177 174 171 161 160 169 152 159 182 155 152 171 160 154 151 121 97 110 133 133 131 156 140 124 131 140 125 119 91 98 131 134 127 127 121 115 122 138 145 114 115 114 110 130 133 122 126 134 131 134 129 143 210 8 45 60 62 65
183 184 183 185 182 184 189 184 182 182 183 188 185 182 185 183 177 172 172 169 165 174 173 171 176 166 168 178 177 175 162 166 179 160 170 192 164 167 169 147 158 152 135 148 157 146 135 133 146 132 143 166 149 132 128 104 103 126 123 116 115 114 105 96 117 132 72 120 131 125 129 133 123 126 138 137 134 128 144 209 351 15 27 33 24
183 185 183 184 184 183 189 189 185 183 186 190 189 188 188 186 185 178 177 178 171 177 177 171 176 169 168 176 174 178 168 162 179 174 177 189 168 171 170 149 156 161 158 158 135 133 143 144 164 154 180 187 163 149 135 122 124 125 130 138 116 112 114 101 108 117 79 92 129 127 128 140 136 125 137 141 134 129 140 159 21 26 351 353 337
183 184 184 185 184 184 190 192 189 186 187 191 192 193 190 188 188 182 182 185 178 179 175 169 175 169 168 171 166 182 177 160 180 193 180 185 176 174 182 161 153 171 173 140 133 192 187 177 188 177 181 186 172 164 145 133 152 148 161 164 143 143 129 114 118 123 114 100 109 119 120 129 131 117 120 131 131 131 130 138 153 168 212 321 358
185 184 184 184 184 185 190 192 191 190 190 192 194 195 194 193 191 187 187 187 183 185 179 172 176 172 173 173 166 183 189 170 187 203 183 187 190 178 187 171 157 167 160 141 170 207 208 195 183 177 175 172 174 175 162 160 169 152 170 171 158 170 156 142 142 134 152 153 129 122 119 120 126 115 95 111 121 123 122 117 128 147 177 314 356
189 186 185 184 183 185 191 193 193 192 192 194 196 196 196 198 196 192 192 190 185 186 185 182 183 180 178 179 176 180 189 184 193 206 194 193 198 187 187 177 167 169 160 167 193 203 214 192 166 171 175 175 188 180 173 188 176 141 168 192 172 164 164 169 164 147 157 179 182 158 153 156 152 145 117 107 121 128 131 105 110 136 152 164 350
193 188 186 185 184 186 191 194 194 195 195 195 196 197 198 201 200 196 196 195 190 187 188 189 191 190 181 183 189 180 177 185 193 207 206 196 203 196 184 183 183 185 180 179 188 190 188 172 179 194 175 175 189 177 175 203 192 173 192 203 183 174 174 179 201 185 166 199 247 234 161 152 160 159 159 158 149 151 160 146 141 158 166 173 193